Home > Weather > Gibraltar > Past weeks

Flag for Gibraltar Weather for the Past 2 Weeks in Gibraltar, Gibraltar

Now
63 °F

Passing clouds.


Feels Like: 63 °F
Forecast: 55 / 64 °F
Wind: 25 mph from West

Location: Gibraltar Airport

Current Time: Feb 7, 2016 at 6:01:01 AM

Latest Report: Feb 7, 2016 at 4:50 AM


Visibility: N/A

Pressure: 30.15 "Hg

Humidity: 68%

Dew point: 52 °F

Location of GibraltarLocation

Historic Weather in Gibraltar — Graph

°F

Gibraltar Temperature Yesterday

Maximum temperature yesterday: 68 °F (at 4:50 PM)
Minimum temperature yesterday: 59 °F (at 12:50 AM)
Average temperature yesterday: 61 °F

High & Low Weather Summary for the Past Weeks

 TemperatureHumidityPressure
High68 °F (Jan 31, 4:50 PM)100% (Jan 26, 12:50 AM)30.57 "Hg (Jan 26, 12:50 AM)
Low50 °F (Jan 28, 7:50 AM)43% (Jan 31, 1:50 PM)30.18 "Hg (Feb 6, 3:50 PM)
Average59 °F80%30.40 "Hg
* Reported Jan 23 3:50 AM — Feb 7 3:50 AM, Gibraltar, Weather by CustomWeather, © 2016

Note: Actual official high and low records may vary slightly from our data, if they occured in-between our weather recording intervals... More about our weather records

Advertising

Gibraltar Weather History for the Previous 24 Hours

 ConditionsComfort  
Time TempWeatherWind HumidityBarometerVisibility
3:50 AM
Sun, Feb 7
63 °FPartly cloudy.21 mph73%30.18 "HgN/A
2:50 AM63 °FPartly cloudy.24 mph73%30.18 "HgN/A
1:50 AM63 °FPassing clouds.25 mph73%30.21 "HgN/A
12:50 AM63 °FPassing clouds.22 mph73%30.21 "HgN/A
11:50 PM
Sat, Feb 6
64 °FPartly cloudy.18 mph68%30.21 "HgN/A
10:50 PM64 °FPassing clouds.20 mph64%30.21 "HgN/A
9:50 PM63 °FPartly cloudy.16 mph77%30.18 "HgN/A
8:50 PM63 °FPartly cloudy.12 mph77%30.18 "HgN/A
7:50 PM63 °FPartly cloudy.13 mph83%30.18 "HgN/A
6:50 PM64 °FPassing clouds.13 mph68%30.18 "HgN/A
5:50 PM66 °FBroken clouds.12 mph64%30.18 "HgN/A
4:50 PM68 °FPartly sunny.10 mph56%30.18 "HgN/A
3:50 PM63 °FPassing clouds.2 mph83%30.18 "HgN/A
2:50 PM61 °FPassing clouds.6 mph83%30.21 "HgN/A
1:50 PM61 °FScattered clouds.6 mph83%30.24 "HgN/A
12:50 PM61 °FScattered clouds.7 mph83%30.27 "HgN/A
11:50 AM59 °FPartly sunny.6 mph88%30.27 "HgN/A
10:50 AM59 °FPartly sunny.7 mph88%30.27 "HgN/A
9:50 AM59 °FPartly sunny.6 mph88%30.27 "HgN/A
8:50 AM59 °FPartly sunny.10 mph88%30.24 "HgN/A
7:50 AM59 °FPassing clouds.8 mph88%30.24 "HgN/A
6:50 AM59 °FPassing clouds.6 mph88%30.24 "HgN/A
Weather by CustomWeather, © 2016

See weather overviewHow to use our weather pages